Regional Weather Roundup
Issued by NWS

Home | Current Version | Previous Version | Graphics & Text | Print | Product List | Glossary On
Versions: 1 2 3 4 5 6 7 8 9 10 11 12 13 14 15 16 17 18 19 20 21 22 23 24 25 26 27 28 29 30 31 32 33 34 35 36 37 38 39 40 41 42 43 44 45 46 47 48 49 50
000
ASUS43 KBIS 221502
RWRND

NORTH DAKOTA REGIONAL WEATHER ROUNDUP
NATIONAL WEATHER SERVICE BISMARCK ND
900 AM CST WED NOV 22 2017

NOTE: "FAIR" INDICATES FEW OR NO CLOUDS BELOW 12,000 FEET WITH NO
SIGNIFICANT WEATHER AND/OR OBSTRUCTIONS TO VISIBILITY.


NDZ001>003-009>011-017-221600-
NORTHWEST NORTH DAKOTA

CITY           SKY/WX    TMP DP  RH WIND       PRES   REMARKS
WILLISTON      CLOUDY    26  18  71 SW6       29.83R WCI  19
MINOT          CLOUDY    26  16  65 S12       29.84F WCI  16
MINOT AFB      CLOUDY    24  14  66 SE7       29.83F WCI  16
$$

NDZ018>021-031>035-040>046-221600-
SOUTHWEST NORTH DAKOTA

CITY           SKY/WX    TMP DP  RH WIND       PRES   REMARKS
BISMARCK       CLOUDY    30  16  56 E5        29.95F
DICKINSON      CLOUDY    41  27  57 W16       29.84F
GARRISON         N/A     25  18  74 S12       29.86F WCI  14
HETTINGER ARPT CLOUDY    33  21  61 SW5       29.94S
$$

NDZ004>008-012>016-024-026-027-054-221600-
NORTHEAST NORTH DAKOTA

CITY           SKY/WX    TMP DP  RH WIND       PRES   REMARKS
GRAND FORKS    CLOUDY    17  13  84 S16       30.09F WCI   2
GRND FRKS AFB  CLOUDY    17  10  74 S14       30.06F WCI   3
DEVILS LAKE    FLURRIES  19  12  74 S14       29.97F WCI   6
$$

NDZ022-023-025-028>030-036>039-047>053-221600-
SOUTHEAST NORTH DAKOTA

CITY           SKY/WX    TMP DP  RH WIND       PRES   REMARKS
FARGO          CLOUDY    18  10  71 S15       30.14F WCI   4
JAMESTOWN      CLOUDY    18  13  80 S14       30.01F WCI   4
$$





USA.gov is the U.S. government's official web portal to all federal, state and local government web resources and services.